Time,TemperatureF,DewpointF,PressureIn,WindDirection,WindDirectionDegrees,WindSpeedMPH,WindSpeedGustMPH,Humidity,HourlyPrecipIn,Conditions,Clouds,dailyrainin,SoftwareType,DateUTC
2013-01-11 00:04:00,40.1,35.0,30.15,North,0,0.0,0.0,82,0.00,RA,,0.00,WeatherDisplay:10.37,2013-01-11 08:04:00,
2013-01-11 00:09:00,40.1,34.7,30.15,North,0,0.0,0.0,81,0.00,CLR,,0.00,WeatherDisplay:10.37,2013-01-11 08:09:00,
2013-01-11 00:14:00,39.9,34.6,30.15,North,0,0.0,0.0,81,0.00,CLR,,0.00,WeatherDisplay:10.37,2013-01-11 08:14:00,
2013-01-11 00:19:00,39.9,34.6,30.15,North,0,0.0,0.0,81,0.00,CLR,,0.00,WeatherDisplay:10.37,2013-01-11 08:19:00,
2013-01-11 00:24:00,39.9,34.6,30.16,North,0,0.0,0.0,81,0.00,CLR,,0.00,WeatherDisplay:10.37,2013-01-11 08:24:00,
2013-01-11 00:29:00,39.9,34.9,30.16,North,0,0.0,0.0,82,0.00,CLR,,0.00,WeatherDisplay:10.37,2013-01-11 08:29:00,
2013-01-11 00:34:00,39.9,34.9,30.15,North,0,0.0,0.0,82,0.00,CLR,,0.00,WeatherDisplay:10.37,2013-01-11 08:34:00,
2013-01-11 00:39:00,39.9,34.9,30.15,North,0,0.0,0.0,82,0.00,CLR,,0.00,WeatherDisplay:10.37,2013-01-11 08:39:00,
2013-01-11 00:44:00,39.9,34.9,30.15,North,0,0.0,0.0,82,0.00,CLR,,0.00,WeatherDisplay:10.37,2013-01-11 08:44:00,
2013-01-11 00:49:00,39.9,34.9,30.15,North,0,0.0,0.0,82,0.00,CLR,,0.00,WeatherDisplay:10.37,2013-01-11 08:49:00,
2013-01-11 00:54:00,39.9,34.9,30.15,North,0,0.0,0.0,82,0.00,CLR,,0.00,WeatherDisplay:10.37,2013-01-11 08:54:00,
2013-01-11 00:59:00,39.7,34.7,30.15,North,0,0.0,0.0,82,0.00,CLR,,0.00,WeatherDisplay:10.37,2013-01-11 08:59:00,
2013-01-11 01:04:00,39.6,34.5,30.15,North,0,0.0,0.0,82,0.00,CLR,,0.00,WeatherDisplay:10.37,2013-01-11 09:04:00,
2013-01-11 01:09:00,39.4,34.3,30.15,North,0,0.0,0.0,82,0.00,CLR,,0.00,WeatherDisplay:10.37,2013-01-11 09:09:00,
2013-01-11 01:14:00,39.3,34.3,30.15,North,0,0.0,0.0,82,0.00,CLR,,0.00,WeatherDisplay:10.37,2013-01-11 09:14:00,
2013-01-11 01:19:00,39.3,34.2,30.15,North,0,0.0,0.0,82,0.00,CLR,,0.00,WeatherDisplay:10.37,2013-01-11 09:19:00,
2013-01-11 01:24:00,39.4,34.3,30.15,North,0,0.0,0.0,82,0.00,CLR,,0.00,WeatherDisplay:10.37,2013-01-11 09:24:00,
2013-01-11 01:29:00,39.4,34.3,30.15,North,0,0.0,0.0,82,0.00,CLR,,0.00,WeatherDisplay:10.37,2013-01-11 09:29:00,
2013-01-11 01:34:00,39.4,34.3,30.15,North,0,0.0,0.0,82,0.00,CLR,,0.00,WeatherDisplay:10.37,2013-01-11 09:34:00,
2013-01-11 01:39:00,39.4,34.3,30.15,North,0,0.0,0.0,82,0.00,CLR,,0.00,WeatherDisplay:10.37,2013-01-11 09:39:00,
2013-01-11 01:44:00,39.4,34.3,30.15,North,0,0.0,0.0,82,0.00,CLR,,0.00,WeatherDisplay:10.37,2013-01-11 09:44:00,
2013-01-11 01:49:00,39.4,34.3,30.15,North,0,0.0,0.0,82,0.00,CLR,,0.00,WeatherDisplay:10.37,2013-01-11 09:49:00,
2013-01-11 01:54:00,39.4,34.3,30.15,North,0,0.0,0.0,82,0.00,CLR,,0.00,WeatherDisplay:10.37,2013-01-11 09:54:00,
2013-01-11 01:59:00,39.6,34.8,30.15,North,0,0.0,0.0,83,0.00,CLR,,0.00,WeatherDisplay:10.37,2013-01-11 09:59:00,
2013-01-11 02:04:00,39.6,34.5,30.15,North,0,0.0,0.0,82,0.00,CLR,,0.00,WeatherDisplay:10.37,2013-01-11 10:04:00,
2013-01-11 02:09:00,39.7,34.7,30.15,North,0,0.0,0.0,82,0.00,CLR,,0.00,WeatherDisplay:10.37,2013-01-11 10:09:00,
2013-01-11 02:14:00,39.7,34.7,30.15,North,0,0.0,0.0,82,0.00,CLR,,0.00,WeatherDisplay:10.37,2013-01-11 10:14:00,
2013-01-11 02:19:00,39.6,34.6,30.15,North,0,0.0,0.0,82,0.00,CLR,,0.00,WeatherDisplay:10.37,2013-01-11 10:19:00,
2013-01-11 02:24:00,39.6,34.5,30.15,North,0,0.0,0.0,82,0.00,CLR,,0.00,WeatherDisplay:10.37,2013-01-11 10:24:00,
2013-01-11 02:29:00,39.6,34.5,30.15,North,0,0.0,0.0,82,0.00,CLR,,0.00,WeatherDisplay:10.37,2013-01-11 10:29:00,
2013-01-11 02:34:00,39.4,34.3,30.15,North,0,0.0,0.0,82,0.00,CLR,,0.00,WeatherDisplay:10.37,2013-01-11 10:34:00,
2013-01-11 02:39:00,39.4,34.3,30.15,North,0,0.0,0.0,82,0.00,CLR,,0.00,WeatherDisplay:10.37,2013-01-11 10:39:00,
2013-01-11 02:44:00,39.2,34.2,30.15,North,0,0.0,0.0,82,0.00,CLR,,0.00,WeatherDisplay:10.37,2013-01-11 10:44:00,
2013-01-11 02:49:00,39.2,34.2,30.15,North,0,0.0,0.0,82,0.00,CLR,,0.00,WeatherDisplay:10.37,2013-01-11 10:49:00,
2013-01-11 02:54:00,39.2,34.2,30.15,North,0,0.0,0.0,82,0.00,CLR,,0.00,WeatherDisplay:10.37,2013-01-11 10:54:00,
2013-01-11 02:59:00,39.2,34.1,30.15,North,0,0.0,0.0,82,0.00,CLR,,0.00,WeatherDisplay:10.37,2013-01-11 10:59:00,
2013-01-11 03:04:00,39.0,34.0,30.15,North,0,0.0,0.0,82,0.00,CLR,,0.00,WeatherDisplay:10.37,2013-01-11 11:04:00,
2013-01-11 03:09:00,39.0,34.3,30.15,North,0,0.0,0.0,83,0.00,CLR,,0.00,WeatherDisplay:10.37,2013-01-11 11:09:00,
2013-01-11 03:14:00,39.0,34.3,30.15,North,0,0.0,0.0,83,0.00,CLR,,0.00,WeatherDisplay:10.37,2013-01-11 11:14:00,
2013-01-11 03:19:00,39.0,34.3,30.15,North,0,0.0,0.0,83,0.00,CLR,,0.00,WeatherDisplay:10.37,2013-01-11 11:19:00,
2013-01-11 03:24:00,39.0,34.3,30.15,North,0,0.0,0.0,83,0.00,CLR,,0.00,WeatherDisplay:10.37,2013-01-11 11:24:00,
2013-01-11 03:29:00,38.8,33.8,30.15,North,0,0.0,0.0,82,0.00,CLR,,0.00,WeatherDisplay:10.37,2013-01-11 11:29:00,
2013-01-11 03:34:00,38.7,33.7,30.15,North,0,0.0,0.0,82,0.00,CLR,,0.00,WeatherDisplay:10.37,2013-01-11 11:34:00,
2013-01-11 03:39:00,38.7,33.9,30.15,North,0,0.0,0.0,83,0.00,CLR,,0.00,WeatherDisplay:10.37,2013-01-11 11:39:00,
2013-01-11 03:44:00,38.7,33.9,30.15,North,0,0.0,0.0,83,0.00,CLR,,0.00,WeatherDisplay:10.37,2013-01-11 11:44:00,
2013-01-11 03:49:00,38.7,33.9,30.15,North,0,0.0,0.0,83,0.00,CLR,,0.00,WeatherDisplay:10.37,2013-01-11 11:49:00,
2013-01-11 03:54:00,38.5,33.8,30.15,North,0,0.0,0.0,83,0.00,CLR,,0.00,WeatherDisplay:10.37,2013-01-11 11:54:00,
2013-01-11 03:59:00,38.5,33.8,30.15,North,0,0.0,0.0,83,0.00,CLR,,0.00,WeatherDisplay:10.37,2013-01-11 11:59:00,
2013-01-11 04:04:00,38.5,33.8,30.15,North,0,0.0,0.0,83,0.00,CLR,,0.00,WeatherDisplay:10.37,2013-01-11 12:04:00,
2013-01-11 04:09:00,38.3,33.6,30.15,North,0,0.0,0.0,83,0.00,CLR,,0.00,WeatherDisplay:10.37,2013-01-11 12:09:00,
2013-01-11 04:14:00,38.2,33.5,30.15,North,0,0.0,0.0,83,0.00,CLR,,0.00,WeatherDisplay:10.37,2013-01-11 12:14:00,
2013-01-11 04:19:00,38.1,33.4,30.15,North,0,0.0,0.0,83,0.00,CLR,,0.00,WeatherDisplay:10.37,2013-01-11 12:19:00,
2013-01-11 04:24:00,38.1,33.7,30.15,North,0,0.0,0.0,84,0.00,CLR,,0.00,WeatherDisplay:10.37,2013-01-11 12:24:00,
2013-01-11 04:29:00,38.1,33.7,30.14,North,0,0.0,0.0,84,0.00,CLR,,0.00,WeatherDisplay:10.37,2013-01-11 12:29:00,
2013-01-11 04:34:00,38.3,33.9,30.14,North,0,0.0,0.0,84,0.00,CLR,,0.00,WeatherDisplay:10.37,2013-01-11 12:34:00,
2013-01-11 04:39:00,38.3,33.9,30.14,North,0,0.0,0.0,84,0.00,CLR,,0.00,WeatherDisplay:10.37,2013-01-11 12:39:00,
2013-01-11 04:44:00,38.1,33.7,30.15,North,0,0.0,0.0,84,0.00,CLR,,0.00,WeatherDisplay:10.37,2013-01-11 12:44:00,
2013-01-11 04:49:00,38.1,33.7,30.15,North,0,0.0,0.0,84,0.00,CLR,,0.00,WeatherDisplay:10.37,2013-01-11 12:49:00,
2013-01-11 04:54:00,37.9,33.5,30.15,North,0,0.0,0.0,84,0.00,CLR,,0.00,WeatherDisplay:10.37,2013-01-11 12:54:00,
2013-01-11 04:59:00,37.8,33.4,30.15,North,0,0.0,0.0,84,0.00,CLR,,0.00,WeatherDisplay:10.37,2013-01-11 12:59:00,
2013-01-11 05:04:00,37.8,33.4,30.15,North,0,0.0,0.0,84,0.00,CLR,,0.00,WeatherDisplay:10.37,2013-01-11 13:04:00,
2013-01-11 05:09:00,37.8,33.4,30.16,North,0,0.0,0.0,84,0.00,CLR,,0.00,WeatherDisplay:10.37,2013-01-11 13:09:00,
2013-01-11 05:14:00,37.6,33.2,30.16,North,0,0.0,0.0,84,0.00,CLR,,0.00,WeatherDisplay:10.37,2013-01-11 13:14:00,
2013-01-11 05:19:00,37.6,33.2,30.15,North,0,0.0,0.0,84,0.00,CLR,,0.00,WeatherDisplay:10.37,2013-01-11 13:19:00,
2013-01-11 05:24:00,37.5,33.1,30.16,North,0,0.0,0.0,84,0.00,CLR,,0.00,WeatherDisplay:10.37,2013-01-11 13:24:00,
2013-01-11 05:29:00,37.4,33.0,30.16,North,0,0.0,0.0,84,0.00,CLR,,0.00,WeatherDisplay:10.37,2013-01-11 13:29:00,
2013-01-11 05:34:00,37.4,33.0,30.16,North,0,0.0,0.0,84,0.00,CLR,,0.00,WeatherDisplay:10.37,2013-01-11 13:34:00,
2013-01-11 05:39:00,37.4,33.0,30.17,North,0,0.0,0.0,84,0.00,CLR,,0.00,WeatherDisplay:10.37,2013-01-11 13:39:00,
2013-01-11 05:44:00,37.4,33.0,30.17,North,0,0.0,0.0,84,0.00,CLR,,0.00,WeatherDisplay:10.37,2013-01-11 13:44:00,
2013-01-11 05:49:00,37.6,33.2,30.17,North,0,0.0,0.0,84,0.00,CLR,,0.00,WeatherDisplay:10.37,2013-01-11 13:49:00,
2013-01-11 05:54:00,37.6,33.2,30.17,North,0,0.0,0.0,84,0.00,CLR,,0.00,WeatherDisplay:10.37,2013-01-11 13:54:00,
2013-01-11 05:59:00,37.6,33.2,30.18,North,0,0.0,0.0,84,0.00,CLR,,0.00,WeatherDisplay:10.37,2013-01-11 13:59:00,
2013-01-11 06:04:00,37.4,33.0,30.18,North,0,0.0,0.0,84,0.00,CLR,,0.00,WeatherDisplay:10.37,2013-01-11 14:04:00,
2013-01-11 06:09:00,37.3,32.9,30.18,North,0,0.0,0.0,84,0.00,CLR,,0.00,WeatherDisplay:10.37,2013-01-11 14:09:00,
2013-01-11 06:14:00,37.2,32.8,30.18,North,0,0.0,0.0,84,0.00,CLR,,0.00,WeatherDisplay:10.37,2013-01-11 14:14:00,
2013-01-11 06:19:00,37.0,32.7,30.18,North,0,0.0,0.0,84,0.00,CLR,,0.00,WeatherDisplay:10.37,2013-01-11 14:19:00,
2013-01-11 06:24:00,37.0,32.7,30.18,North,0,0.0,0.0,84,0.00,CLR,,0.00,WeatherDisplay:10.37,2013-01-11 14:24:00,
2013-01-11 06:29:00,37.0,32.7,30.18,North,0,0.0,0.0,84,0.00,CLR,,0.00,WeatherDisplay:10.37,2013-01-11 14:29:00,
2013-01-11 06:34:00,37.0,32.7,30.18,North,0,0.0,0.0,84,0.00,CLR,,0.00,WeatherDisplay:10.37,2013-01-11 14:34:00,
2013-01-11 06:39:00,37.0,32.7,30.18,North,0,0.0,0.0,84,0.00,CLR,,0.00,WeatherDisplay:10.37,2013-01-11 14:39:00,
2013-01-11 06:44:00,37.0,32.6,30.18,North,0,0.0,0.0,84,0.00,CLR,,0.00,WeatherDisplay:10.37,2013-01-11 14:44:00,
2013-01-11 06:49:00,36.9,32.5,30.19,North,0,0.0,0.0,84,0.00,CLR,,0.00,WeatherDisplay:10.37,2013-01-11 14:49:00,
2013-01-11 06:54:00,36.9,32.5,30.19,North,0,0.0,0.0,84,0.00,CLR,,0.00,WeatherDisplay:10.37,2013-01-11 14:54:00,
2013-01-11 06:59:00,37.0,32.9,30.19,North,0,0.0,0.0,85,0.00,CLR,,0.00,WeatherDisplay:10.37,2013-01-11 14:59:00,
2013-01-11 07:04:00,37.0,32.9,30.19,North,0,0.0,0.0,85,0.00,CLR,,0.00,WeatherDisplay:10.37,2013-01-11 15:04:00,
2013-01-11 07:09:00,37.0,32.9,30.19,North,0,0.0,0.0,85,0.00,CLR,,0.00,WeatherDisplay:10.37,2013-01-11 15:09:00,
2013-01-11 07:14:00,37.0,32.7,30.19,North,0,0.0,0.0,84,0.00,CLR,,0.00,WeatherDisplay:10.37,2013-01-11 15:14:00,
2013-01-11 07:19:00,37.0,32.7,30.19,North,0,0.0,0.0,84,0.00,CLR,,0.00,WeatherDisplay:10.37,2013-01-11 15:19:00,
2013-01-11 07:24:00,36.9,32.5,30.19,North,0,0.0,0.0,84,0.00,CLR,,0.00,WeatherDisplay:10.37,2013-01-11 15:24:00,
2013-01-11 07:29:00,36.7,32.3,30.20,North,0,0.0,0.0,84,0.00,CLR,,0.00,WeatherDisplay:10.37,2013-01-11 15:29:00,
2013-01-11 07:34:00,36.7,32.6,30.20,North,0,0.0,0.0,85,0.00,CLR,,0.00,WeatherDisplay:10.37,2013-01-11 15:34:00,
2013-01-11 07:39:00,36.6,32.5,30.19,North,0,0.0,0.0,85,0.00,CLR,,0.00,WeatherDisplay:10.37,2013-01-11 15:39:00,
2013-01-11 07:44:00,36.6,32.5,30.20,North,0,0.0,0.0,85,0.00,CLR,,0.00,WeatherDisplay:10.37,2013-01-11 15:44:00,
2013-01-11 07:49:00,36.5,32.4,30.20,North,0,0.0,0.0,85,0.00,CLR,,0.00,WeatherDisplay:10.37,2013-01-11 15:49:00,
2013-01-11 07:54:00,36.7,32.6,30.20,North,0,0.0,0.0,85,0.00,CLR,,0.00,WeatherDisplay:10.37,2013-01-11 15:54:00,
2013-01-11 07:59:00,36.7,32.6,30.20,North,0,0.0,0.0,85,0.00,CLR,,0.00,WeatherDisplay:10.37,2013-01-11 15:59:00,
2013-01-11 08:04:00,36.7,32.6,30.20,North,0,0.0,0.0,85,0.00,CLR,,0.00,WeatherDisplay:10.37,2013-01-11 16:04:00,
2013-01-11 08:09:00,36.7,32.9,30.21,North,0,0.0,0.0,86,0.00,CLR,,0.00,WeatherDisplay:10.37,2013-01-11 16:09:00,
2013-01-11 08:14:00,37.0,33.2,30.20,North,0,0.0,0.0,86,0.00,CLR,,0.00,WeatherDisplay:10.37,2013-01-11 16:14:00,
2013-01-11 08:19:00,37.0,33.2,30.21,North,0,0.0,0.0,86,0.00,CLR,,0.00,WeatherDisplay:10.37,2013-01-11 16:19:00,
2013-01-11 08:24:00,37.4,33.6,30.21,North,0,0.0,0.0,86,0.00,CLR,,0.00,WeatherDisplay:10.37,2013-01-11 16:24:00,
2013-01-11 08:29:00,37.6,33.8,30.21,North,0,0.0,0.0,86,0.00,CLR,,0.00,WeatherDisplay:10.37,2013-01-11 16:29:00,
2013-01-11 08:34:00,37.8,33.9,30.21,North,0,0.0,0.0,86,0.00,CLR,,0.00,WeatherDisplay:10.37,2013-01-11 16:34:00,
2013-01-11 08:39:00,37.9,34.1,30.21,North,0,0.0,0.0,86,0.00,CLR,,0.00,WeatherDisplay:10.37,2013-01-11 16:39:00,
2013-01-11 08:44:00,38.1,34.3,30.21,North,0,0.0,0.0,86,0.00,CLR,,0.00,WeatherDisplay:10.37,2013-01-11 16:44:00,
2013-01-11 08:49:00,38.3,34.5,30.21,North,0,0.0,0.0,86,0.00,CLR,,0.00,WeatherDisplay:10.37,2013-01-11 16:49:00,
2013-01-11 08:54:00,38.5,34.7,30.21,North,0,0.0,0.0,86,0.00,CLR,,0.00,WeatherDisplay:10.37,2013-01-11 16:54:00,
2013-01-11 08:59:00,38.8,34.7,30.21,North,0,0.0,0.0,85,0.00,CLR,,0.00,WeatherDisplay:10.37,2013-01-11 16:59:00,
2013-01-11 09:04:00,39.2,35.0,30.21,North,0,0.0,0.0,85,0.00,CLR,,0.00,WeatherDisplay:10.37,2013-01-11 17:04:00,
2013-01-11 09:09:00,39.4,35.2,30.21,North,0,0.0,0.0,85,0.00,CLR,,0.00,WeatherDisplay:10.37,2013-01-11 17:09:00,
2013-01-11 09:14:00,39.7,35.6,30.21,North,0,0.0,0.0,85,0.00,CLR,,0.00,WeatherDisplay:10.37,2013-01-11 17:14:00,
2013-01-11 09:19:00,39.9,35.8,30.22,North,0,0.0,0.0,85,0.00,CLR,,0.00,WeatherDisplay:10.37,2013-01-11 17:19:00,
2013-01-11 09:24:00,40.4,35.9,30.21,North,0,0.0,0.0,84,0.00,CLR,,0.00,WeatherDisplay:10.37,2013-01-11 17:24:00,
2013-01-11 09:29:00,41.1,36.6,30.21,North,0,0.0,0.0,84,0.00,CLR,,0.00,WeatherDisplay:10.37,2013-01-11 17:29:00,
2013-01-11 09:34:00,41.8,37.6,30.21,North,0,0.0,0.0,85,0.00,CLR,,0.00,WeatherDisplay:10.37,2013-01-11 17:34:00,
2013-01-11 09:39:00,42.3,37.9,30.21,North,0,0.0,0.0,84,0.00,CLR,,0.00,WeatherDisplay:10.37,2013-01-11 17:39:00,
2013-01-11 09:44:00,42.8,38.0,30.21,North,0,0.0,0.0,83,0.00,CLR,,0.00,WeatherDisplay:10.37,2013-01-11 17:44:00,
2013-01-11 09:49:00,43.0,37.9,30.21,North,0,0.0,0.0,82,0.00,CLR,,0.00,WeatherDisplay:10.37,2013-01-11 17:49:00,
2013-01-11 09:54:00,43.2,37.8,30.21,North,0,0.0,0.0,81,0.00,CLR,,0.00,WeatherDisplay:10.37,2013-01-11 17:54:00,
2013-01-11 09:59:00,43.4,37.9,30.21,North,0,0.0,0.0,81,0.00,CLR,,0.00,WeatherDisplay:10.37,2013-01-11 17:59:00,
2013-01-11 10:04:00,43.5,38.1,30.21,North,0,0.0,0.0,81,0.00,CLR,,0.00,WeatherDisplay:10.37,2013-01-11 18:04:00,
2013-01-11 10:09:00,43.7,38.3,30.21,North,0,0.0,0.0,81,0.00,CLR,,0.00,WeatherDisplay:10.37,2013-01-11 18:09:00,
2013-01-11 10:14:00,43.9,38.4,30.21,North,0,0.0,0.0,81,0.00,CLR,,0.00,WeatherDisplay:10.37,2013-01-11 18:14:00,
2013-01-11 10:19:00,44.1,38.6,30.21,North,0,0.0,0.0,81,0.00,CLR,,0.00,WeatherDisplay:10.37,2013-01-11 18:19:00,
2013-01-11 10:24:00,44.2,38.8,30.21,North,0,0.0,0.0,81,0.00,CLR,,0.00,WeatherDisplay:10.37,2013-01-11 18:24:00,
2013-01-11 10:29:00,44.2,38.5,30.21,North,0,0.0,0.0,80,0.00,CLR,,0.00,WeatherDisplay:10.37,2013-01-11 18:29:00,
2013-01-11 10:34:00,44.5,38.7,30.21,North,0,0.0,0.0,80,0.00,CLR,,0.00,WeatherDisplay:10.37,2013-01-11 18:34:00,
2013-01-11 10:39:00,44.8,38.7,30.21,North,0,0.0,0.0,79,0.00,CLR,,0.00,WeatherDisplay:10.37,2013-01-11 18:39:00,
2013-01-11 10:44:00,45.0,38.9,30.20,North,0,0.0,0.0,79,0.00,CLR,,0.00,WeatherDisplay:10.37,2013-01-11 18:44:00,
2013-01-11 10:49:00,45.4,39.2,30.20,North,0,0.0,0.0,79,0.00,CLR,,0.00,WeatherDisplay:10.37,2013-01-11 18:49:00,
2013-01-11 10:54:00,45.9,39.8,30.20,North,0,0.0,0.0,79,0.00,CLR,,0.00,WeatherDisplay:10.37,2013-01-11 18:54:00,
2013-01-11 10:59:00,46.4,39.9,30.19,North,0,0.0,0.0,78,0.00,CLR,,0.00,WeatherDisplay:10.37,2013-01-11 18:59:00,
2013-01-11 11:04:00,46.7,39.9,30.19,North,0,0.0,0.0,77,0.00,CLR,,0.00,WeatherDisplay:10.37,2013-01-11 19:04:00,
2013-01-11 11:09:00,46.8,40.3,30.19,North,0,0.0,0.0,78,0.00,CLR,,0.00,WeatherDisplay:10.37,2013-01-11 19:09:00,
2013-01-11 11:14:00,46.8,39.9,30.19,North,0,0.0,0.0,77,0.00,CLR,,0.00,WeatherDisplay:10.37,2013-01-11 19:14:00,
2013-01-11 11:19:00,46.9,40.4,30.19,North,0,0.0,0.0,78,0.00,CLR,,0.00,WeatherDisplay:10.37,2013-01-11 19:19:00,
2013-01-11 11:24:00,47.2,40.7,30.18,North,0,0.0,0.0,78,0.00,CLR,,0.00,WeatherDisplay:10.37,2013-01-11 19:24:00,
2013-01-11 11:29:00,47.5,41.0,30.18,North,0,0.0,0.0,78,0.00,CLR,,0.00,WeatherDisplay:10.37,2013-01-11 19:29:00,
2013-01-11 11:34:00,47.7,41.2,30.18,North,0,0.0,0.0,78,0.00,CLR,,0.00,WeatherDisplay:10.37,2013-01-11 19:34:00,
2013-01-11 11:39:00,48.0,41.2,30.17,North,0,0.0,0.0,77,0.00,CLR,,0.00,WeatherDisplay:10.37,2013-01-11 19:39:00,
2013-01-11 11:44:00,48.4,41.5,30.17,North,0,0.0,0.0,77,0.00,CLR,,0.00,WeatherDisplay:10.37,2013-01-11 19:44:00,
2013-01-11 11:49:00,48.7,41.5,30.16,North,0,0.0,0.0,76,0.00,CLR,,0.00,WeatherDisplay:10.37,2013-01-11 19:49:00,
2013-01-11 11:54:00,49.1,41.5,30.16,North,0,0.0,0.0,75,0.00,CLR,,0.00,WeatherDisplay:10.37,2013-01-11 19:54:00,
2013-01-11 11:59:00,49.3,41.7,30.16,North,0,0.0,0.0,75,0.00,CLR,,0.00,WeatherDisplay:10.37,2013-01-11 19:59:00,
2013-01-11 12:04:00,49.6,42.0,30.16,North,0,0.0,0.0,75,0.00,CLR,,0.00,WeatherDisplay:10.37,2013-01-11 20:04:00,
2013-01-11 12:09:00,50.0,42.0,30.15,North,0,0.0,0.0,74,0.00,CLR,,0.00,WeatherDisplay:10.37,2013-01-11 20:09:00,
2013-01-11 12:14:00,50.2,41.5,30.15,North,0,0.0,0.0,72,0.00,CLR,,0.00,WeatherDisplay:10.37,2013-01-11 20:14:00,
2013-01-11 12:19:00,50.2,41.5,30.15,North,0,0.0,0.0,72,0.00,CLR,,0.00,WeatherDisplay:10.37,2013-01-11 20:19:00,
2013-01-11 12:24:00,50.2,41.2,30.14,North,0,0.0,0.0,71,0.00,CLR,,0.00,WeatherDisplay:10.37,2013-01-11 20:24:00,
2013-01-11 12:29:00,50.4,40.9,30.14,North,0,0.0,0.0,70,0.00,CLR,,0.00,WeatherDisplay:10.37,2013-01-11 20:29:00,
2013-01-11 12:34:00,50.4,41.3,30.14,North,0,0.0,0.0,71,0.00,CLR,,0.00,WeatherDisplay:10.37,2013-01-11 20:34:00,
2013-01-11 12:39:00,50.5,41.1,30.14,North,0,0.0,0.0,70,0.00,CLR,,0.00,WeatherDisplay:10.37,2013-01-11 20:39:00,
2013-01-11 12:44:00,50.7,41.3,30.13,North,0,0.0,0.0,70,0.00,CLR,,0.00,WeatherDisplay:10.37,2013-01-11 20:44:00,
2013-01-11 12:49:00,50.7,40.9,30.13,North,0,0.0,0.0,69,0.00,CLR,,0.00,WeatherDisplay:10.37,2013-01-11 20:49:00,
2013-01-11 12:54:00,51.1,41.3,30.13,North,0,0.0,0.0,69,0.00,CLR,,0.00,WeatherDisplay:10.37,2013-01-11 20:54:00,
2013-01-11 12:59:00,51.1,41.3,30.13,North,0,0.0,0.0,69,0.00,CLR,,0.00,WeatherDisplay:10.37,2013-01-11 20:59:00,
2013-01-11 13:04:00,51.3,41.1,30.13,North,0,0.0,0.0,68,0.00,CLR,,0.00,WeatherDisplay:10.37,2013-01-11 21:04:00,
2013-01-11 13:09:00,51.4,41.2,30.13,North,0,0.0,0.0,68,0.00,CLR,,0.00,WeatherDisplay:10.37,2013-01-11 21:09:00,
2013-01-11 13:19:00,51.8,41.5,30.13,North,0,0.0,0.0,68,0.00,CLR,,0.00,WeatherDisplay:10.37,2013-01-11 21:19:00,
2013-01-11 13:24:00,52.0,41.7,30.12,North,0,0.0,0.0,68,0.00,CLR,,0.00,WeatherDisplay:10.37,2013-01-11 21:24:00,
2013-01-11 13:29:00,52.1,41.9,30.12,North,0,0.0,0.0,68,0.00,CLR,,0.00,WeatherDisplay:10.37,2013-01-11 21:29:00,
2013-01-11 13:34:00,52.2,41.9,30.12,North,0,0.0,0.0,68,0.00,CLR,,0.00,WeatherDisplay:10.37,2013-01-11 21:34:00,
2013-01-11 13:39:00,52.3,42.0,30.12,North,0,0.0,0.0,68,0.00,CLR,,0.00,WeatherDisplay:10.37,2013-01-11 21:39:00,
2013-01-11 13:44:00,52.4,42.2,30.12,North,0,0.0,0.0,68,0.00,CLR,,0.00,WeatherDisplay:10.37,2013-01-11 21:44:00,
2013-01-11 13:49:00,52.5,41.9,30.12,North,0,0.0,0.0,67,0.00,CLR,,0.00,WeatherDisplay:10.37,2013-01-11 21:49:00,
2013-01-11 13:54:00,52.5,41.5,30.12,North,0,0.0,0.0,66,0.00,CLR,,0.00,WeatherDisplay:10.37,2013-01-11 21:54:00,
2013-01-11 13:59:00,52.7,41.7,30.12,North,0,0.0,0.0,66,0.00,CLR,,0.00,WeatherDisplay:10.37,2013-01-11 21:59:00,
2013-01-11 14:04:00,52.7,41.3,30.11,North,0,0.0,0.0,65,0.00,CLR,,0.00,WeatherDisplay:10.37,2013-01-11 22:04:00,
2013-01-11 14:09:00,52.5,40.7,30.11,North,0,0.0,0.0,64,0.00,CLR,,0.00,WeatherDisplay:10.37,2013-01-11 22:09:00,
2013-01-11 14:14:00,52.3,40.5,30.11,North,0,0.0,0.0,64,0.00,CLR,,0.00,WeatherDisplay:10.37,2013-01-11 22:14:00,
2013-01-11 14:19:00,52.2,40.7,30.12,North,0,0.0,0.0,65,0.00,CLR,,0.00,WeatherDisplay:10.37,2013-01-11 22:19:00,
2013-01-11 14:24:00,52.3,41.3,30.12,North,0,0.0,0.0,66,0.00,CLR,,0.00,WeatherDisplay:10.37,2013-01-11 22:24:00,
2013-01-11 14:29:00,52.5,41.4,30.11,North,0,0.0,0.0,66,0.00,CLR,,0.00,WeatherDisplay:10.37,2013-01-11 22:29:00,
2013-01-11 14:34:00,52.7,41.7,30.11,North,0,0.0,0.0,66,0.00,CLR,,0.00,WeatherDisplay:10.37,2013-01-11 22:34:00,
2013-01-11 14:39:00,52.7,41.7,30.11,North,0,0.0,0.0,66,0.00,CLR,,0.00,WeatherDisplay:10.37,2013-01-11 22:39:00,
2013-01-11 14:44:00,52.7,41.3,30.11,North,0,0.0,0.0,65,0.00,CLR,,0.00,WeatherDisplay:10.37,2013-01-11 22:44:00,
2013-01-11 14:49:00,52.3,40.9,30.11,North,0,0.0,0.0,65,0.00,CLR,,0.00,WeatherDisplay:10.37,2013-01-11 22:49:00,
2013-01-11 14:54:00,52.2,40.7,30.11,North,0,0.0,0.0,65,0.00,CLR,,0.00,WeatherDisplay:10.37,2013-01-11 22:54:00,
2013-01-11 14:59:00,51.8,40.8,30.11,North,0,0.0,0.0,66,0.00,CLR,,0.00,WeatherDisplay:10.37,2013-01-11 22:59:00,
2013-01-11 15:04:00,51.8,40.8,30.11,North,0,0.0,0.0,66,0.00,CLR,,0.00,WeatherDisplay:10.37,2013-01-11 23:04:00,
2013-01-11 15:09:00,51.8,40.8,30.11,North,0,0.0,0.0,66,0.00,CLR,,0.00,WeatherDisplay:10.37,2013-01-11 23:09:00,
2013-01-11 15:14:00,51.8,41.2,30.11,North,0,0.0,0.0,67,0.00,CLR,,0.00,WeatherDisplay:10.37,2013-01-11 23:14:00,
2013-01-11 15:19:00,52.0,41.4,30.11,North,0,0.0,0.0,67,0.00,CLR,,0.00,WeatherDisplay:10.37,2013-01-11 23:19:00,
2013-01-11 15:24:00,52.1,41.5,30.11,North,0,0.0,0.0,67,0.00,CLR,,0.00,WeatherDisplay:10.37,2013-01-11 23:24:00,
2013-01-11 15:29:00,52.0,41.4,30.11,North,0,0.0,0.0,67,0.00,CLR,,0.00,WeatherDisplay:10.37,2013-01-11 23:29:00,
2013-01-11 15:34:00,51.8,41.6,30.11,North,0,0.0,0.0,68,0.00,CLR,,0.00,WeatherDisplay:10.37,2013-01-11 23:34:00,
2013-01-11 15:39:00,51.6,41.4,30.11,North,0,0.0,0.0,68,0.00,CLR,,0.00,WeatherDisplay:10.37,2013-01-11 23:39:00,
2013-01-11 15:44:00,51.4,41.2,30.11,North,0,0.0,0.0,68,0.00,CLR,,0.00,WeatherDisplay:10.37,2013-01-11 23:44:00,
2013-01-11 15:49:00,51.4,41.2,30.10,North,0,0.0,0.0,68,0.00,CLR,,0.00,WeatherDisplay:10.37,2013-01-11 23:49:00,
2013-01-11 15:54:00,51.4,41.2,30.10,North,0,0.0,0.0,68,0.00,CLR,,0.00,WeatherDisplay:10.37,2013-01-11 23:54:00,
2013-01-11 15:59:00,51.4,41.2,30.10,North,0,0.0,0.0,68,0.00,CLR,,0.00,WeatherDisplay:10.37,2013-01-11 23:59:00,
2013-01-11 16:04:00,51.4,41.2,30.10,North,0,0.0,0.0,68,0.00,CLR,,0.00,WeatherDisplay:10.37,2013-01-12 00:04:00,
2013-01-11 16:09:00,51.3,41.1,30.10,North,0,0.0,0.0,68,0.00,CLR,,0.00,WeatherDisplay:10.37,2013-01-12 00:09:00,
2013-01-11 16:14:00,51.3,41.1,30.10,North,0,0.0,0.0,68,0.00,CLR,,0.00,WeatherDisplay:10.37,2013-01-12 00:14:00,
2013-01-11 16:19:00,51.3,41.1,30.10,North,0,0.0,0.0,68,0.00,CLR,,0.00,WeatherDisplay:10.37,2013-01-12 00:19:00,
2013-01-11 16:24:00,51.1,40.9,30.10,North,0,0.0,0.0,68,0.00,CLR,,0.00,WeatherDisplay:10.37,2013-01-12 00:24:00,
2013-01-11 16:29:00,50.9,40.7,30.10,North,0,0.0,0.0,68,0.00,CLR,,0.00,WeatherDisplay:10.37,2013-01-12 00:29:00,
2013-01-11 16:34:00,50.7,40.5,30.10,North,0,0.0,0.0,68,0.00,CLR,,0.00,WeatherDisplay:10.37,2013-01-12 00:34:00,
2013-01-11 16:44:00,50.2,40.0,30.10,North,0,0.0,0.0,68,0.00,CLR,,0.00,WeatherDisplay:10.37,2013-01-12 00:44:00,
2013-01-11 16:49:00,50.0,40.2,30.10,North,0,0.0,0.0,69,0.00,CLR,,0.00,WeatherDisplay:10.37,2013-01-12 00:49:00,
2013-01-11 16:54:00,50.0,40.2,30.10,North,0,0.0,0.0,69,0.00,CLR,,0.00,WeatherDisplay:10.37,2013-01-12 00:54:00,
2013-01-11 16:59:00,49.8,40.4,30.10,North,0,0.0,0.0,70,0.00,CLR,,0.00,WeatherDisplay:10.37,2013-01-12 00:59:00,
2013-01-11 17:04:00,49.8,40.4,30.10,North,0,0.0,0.0,70,0.00,CLR,,0.00,WeatherDisplay:10.37,2013-01-12 01:04:00,
2013-01-11 17:09:00,49.8,40.4,30.10,North,0,0.0,0.0,70,0.00,CLR,,0.00,WeatherDisplay:10.37,2013-01-12 01:09:00,
2013-01-11 17:14:00,49.8,40.8,30.10,North,0,0.0,0.0,71,0.00,CLR,,0.00,WeatherDisplay:10.37,2013-01-12 01:14:00,
2013-01-11 17:19:00,49.6,40.6,30.10,North,0,0.0,0.0,71,0.00,CLR,,0.00,WeatherDisplay:10.37,2013-01-12 01:19:00,
2013-01-11 17:24:00,49.3,40.3,30.09,North,0,0.0,0.0,71,0.00,CLR,,0.00,WeatherDisplay:10.37,2013-01-12 01:24:00,
2013-01-11 17:29:00,49.1,40.1,30.09,North,0,0.0,0.0,71,0.00,CLR,,0.00,WeatherDisplay:10.37,2013-01-12 01:29:00,
2013-01-11 17:34:00,48.8,40.2,30.10,North,0,0.0,0.0,72,0.00,CLR,,0.00,WeatherDisplay:10.37,2013-01-12 01:34:00,
2013-01-11 17:39:00,48.6,39.9,30.10,North,0,0.0,0.0,72,0.00,CLR,,0.00,WeatherDisplay:10.37,2013-01-12 01:39:00,
2013-01-11 17:44:00,48.2,39.6,30.10,North,0,0.0,0.0,72,0.00,CLR,,0.00,WeatherDisplay:10.37,2013-01-12 01:44:00,
2013-01-11 17:49:00,48.0,39.8,30.09,North,0,0.0,0.0,73,0.00,CLR,,0.00,WeatherDisplay:10.37,2013-01-12 01:49:00,
2013-01-11 17:54:00,47.8,39.6,30.10,North,0,0.0,0.0,73,0.00,CLR,,0.00,WeatherDisplay:10.37,2013-01-12 01:54:00,
2013-01-11 17:59:00,47.5,39.6,30.10,North,0,0.0,0.0,74,0.00,CLR,,0.00,WeatherDisplay:10.37,2013-01-12 01:59:00,
2013-01-11 18:04:00,47.3,39.4,30.10,North,0,0.0,0.0,74,0.00,CLR,,0.00,WeatherDisplay:10.37,2013-01-12 02:04:00,
2013-01-11 18:14:00,46.9,39.4,30.09,North,0,0.0,0.0,75,0.00,CLR,,0.00,WeatherDisplay:10.37,2013-01-12 02:14:00,
2013-01-11 18:19:00,46.8,39.3,30.10,North,0,0.0,0.0,75,0.00,CLR,,0.00,WeatherDisplay:10.37,2013-01-12 02:19:00,
2013-01-11 18:24:00,46.8,39.3,30.10,North,0,0.0,0.0,75,0.00,CLR,,0.00,WeatherDisplay:10.37,2013-01-12 02:24:00,
2013-01-11 18:29:00,46.6,39.4,30.10,North,0,0.0,0.0,76,0.00,CLR,,0.00,WeatherDisplay:10.37,2013-01-12 02:29:00,
2013-01-11 18:34:00,46.4,39.2,30.10,North,0,0.0,0.0,76,0.00,CLR,,0.00,WeatherDisplay:10.37,2013-01-12 02:34:00,
2013-01-11 18:39:00,46.3,39.1,30.10,North,0,0.0,0.0,76,0.00,CLR,,0.00,WeatherDisplay:10.37,2013-01-12 02:39:00,
2013-01-11 18:44:00,46.0,38.9,30.10,North,0,0.0,0.0,76,0.00,CLR,,0.00,WeatherDisplay:10.37,2013-01-12 02:44:00,
2013-01-11 18:49:00,46.0,39.2,30.10,North,0,0.0,0.0,77,0.00,CLR,,0.00,WeatherDisplay:10.37,2013-01-12 02:49:00,
2013-01-11 18:54:00,45.9,39.1,30.10,North,0,0.0,0.0,77,0.00,CLR,,0.00,WeatherDisplay:10.37,2013-01-12 02:54:00,
2013-01-11 18:59:00,45.7,38.9,30.10,North,0,0.0,0.0,77,0.00,CLR,,0.00,WeatherDisplay:10.37,2013-01-12 02:59:00,
2013-01-11 19:04:00,45.7,39.2,30.10,North,0,0.0,0.0,78,0.00,CLR,,0.00,WeatherDisplay:10.37,2013-01-12 03:04:00,
2013-01-11 19:14:00,45.3,38.5,30.10,North,0,0.0,0.0,77,0.00,CLR,,0.00,WeatherDisplay:10.37,2013-01-12 03:14:00,
2013-01-11 19:19:00,45.3,38.5,30.10,North,0,0.0,0.0,77,0.00,CLR,,0.00,WeatherDisplay:10.37,2013-01-12 03:19:00,
2013-01-11 19:24:00,45.1,38.4,30.10,North,0,0.0,0.0,77,0.00,CLR,,0.00,WeatherDisplay:10.37,2013-01-12 03:24:00,
2013-01-11 19:29:00,45.0,38.2,30.10,North,0,0.0,0.0,77,0.00,CLR,,0.00,WeatherDisplay:10.37,2013-01-12 03:29:00,
2013-01-11 19:34:00,45.0,38.5,30.09,North,0,0.0,0.0,78,0.00,CLR,,0.00,WeatherDisplay:10.37,2013-01-12 03:34:00,
2013-01-11 19:39:00,45.0,38.5,30.09,North,0,0.0,0.0,78,0.00,CLR,,0.00,WeatherDisplay:10.37,2013-01-12 03:39:00,
2013-01-11 19:44:00,45.0,38.5,30.09,North,0,0.0,0.0,78,0.00,CLR,,0.00,WeatherDisplay:10.37,2013-01-12 03:44:00,
2013-01-11 19:49:00,45.0,38.5,30.09,North,0,0.0,0.0,78,0.00,CLR,,0.00,WeatherDisplay:10.37,2013-01-12 03:49:00,
2013-01-11 19:54:00,44.8,38.3,30.09,North,0,0.0,0.0,78,0.00,CLR,,0.00,WeatherDisplay:10.37,2013-01-12 03:54:00,
2013-01-11 20:04:00,44.4,38.0,30.09,North,0,0.0,0.0,78,0.00,CLR,,0.00,WeatherDisplay:10.37,2013-01-12 04:04:00,
2013-01-11 20:09:00,44.2,38.1,30.10,North,0,0.0,0.0,79,0.00,CLR,,0.00,WeatherDisplay:10.37,2013-01-12 04:09:00,
2013-01-11 20:14:00,44.2,38.1,30.09,North,0,0.0,0.0,79,0.00,CLR,,0.00,WeatherDisplay:10.37,2013-01-12 04:14:00,
2013-01-11 20:19:00,44.1,38.0,30.10,North,0,0.0,0.0,79,0.00,CLR,,0.00,WeatherDisplay:10.37,2013-01-12 04:19:00,
2013-01-11 20:24:00,43.9,37.8,30.10,North,0,0.0,0.0,79,0.00,CLR,,0.00,WeatherDisplay:10.37,2013-01-12 04:24:00,
2013-01-11 20:29:00,43.9,37.8,30.10,North,0,0.0,0.0,79,0.00,CLR,,0.00,WeatherDisplay:10.37,2013-01-12 04:29:00,
2013-01-11 20:34:00,43.9,37.8,30.10,North,0,0.0,0.0,79,0.00,CLR,,0.00,WeatherDisplay:10.37,2013-01-12 04:34:00,
2013-01-11 20:39:00,43.7,37.9,30.10,North,0,0.0,0.0,80,0.00,CLR,,0.00,WeatherDisplay:10.37,2013-01-12 04:39:00,
2013-01-11 20:44:00,43.5,37.8,30.10,North,0,0.0,0.0,80,0.00,CLR,,0.00,WeatherDisplay:10.37,2013-01-12 04:44:00,
2013-01-11 20:49:00,43.5,37.8,30.10,North,0,0.0,0.0,80,0.00,CLR,,0.00,WeatherDisplay:10.37,2013-01-12 04:49:00,
2013-01-11 20:54:00,43.5,37.8,30.10,North,0,0.0,0.0,80,0.00,CLR,,0.00,WeatherDisplay:10.37,2013-01-12 04:54:00,
2013-01-11 20:59:00,43.5,37.8,30.10,North,0,0.0,0.0,80,0.00,CLR,,0.00,WeatherDisplay:10.37,2013-01-12 04:59:00,
2013-01-11 21:04:00,43.5,37.8,30.10,North,0,0.0,0.0,80,0.00,CLR,,0.00,WeatherDisplay:10.37,2013-01-12 05:04:00,
2013-01-11 21:09:00,43.3,37.6,30.09,North,0,0.0,0.0,80,0.00,CLR,,0.00,WeatherDisplay:10.37,2013-01-12 05:09:00,
2013-01-11 21:14:00,43.2,37.4,30.10,North,0,0.0,0.0,80,0.00,CLR,,0.00,WeatherDisplay:10.37,2013-01-12 05:14:00,
2013-01-11 21:19:00,43.0,37.2,30.10,North,0,0.0,0.0,80,0.00,CLR,,0.00,WeatherDisplay:10.37,2013-01-12 05:19:00,
2013-01-11 21:24:00,42.8,37.4,30.10,North,0,0.0,0.0,81,0.00,CLR,,0.00,WeatherDisplay:10.37,2013-01-12 05:24:00,
2013-01-11 21:29:00,42.8,37.4,30.10,North,0,0.0,0.0,81,0.00,CLR,,0.00,WeatherDisplay:10.37,2013-01-12 05:29:00,
2013-01-11 21:34:00,42.7,37.2,30.10,North,0,0.0,0.0,81,0.00,CLR,,0.00,WeatherDisplay:10.37,2013-01-12 05:34:00,
2013-01-11 21:39:00,42.6,37.2,30.10,North,0,0.0,0.0,81,0.00,CLR,,0.00,WeatherDisplay:10.37,2013-01-12 05:39:00,
2013-01-11 21:44:00,42.4,37.0,30.10,North,0,0.0,0.0,81,0.00,CLR,,0.00,WeatherDisplay:10.37,2013-01-12 05:44:00,
2013-01-11 21:49:00,42.4,37.0,30.10,North,0,0.0,0.0,81,0.00,CLR,,0.00,WeatherDisplay:10.37,2013-01-12 05:49:00,
2013-01-11 21:54:00,42.4,37.3,30.09,North,0,0.0,0.0,82,0.00,CLR,,0.00,WeatherDisplay:10.37,2013-01-12 05:54:00,
2013-01-11 21:59:00,42.4,37.3,30.10,North,0,0.0,0.0,82,0.00,CLR,,0.00,WeatherDisplay:10.37,2013-01-12 05:59:00,
2013-01-11 22:04:00,42.6,37.5,30.10,North,0,0.0,0.0,82,0.00,CLR,,0.00,WeatherDisplay:10.37,2013-01-12 06:04:00,
2013-01-11 22:14:00,42.8,38.0,30.10,North,0,0.0,0.0,83,0.00,CLR,,0.00,WeatherDisplay:10.37,2013-01-12 06:14:00,
2013-01-11 22:24:00,42.8,37.7,30.10,North,0,0.0,0.0,82,0.00,CLR,,0.00,WeatherDisplay:10.37,2013-01-12 06:24:00,
2013-01-11 22:29:00,42.7,37.5,30.09,North,0,0.0,0.0,82,0.00,CLR,,0.00,WeatherDisplay:10.37,2013-01-12 06:29:00,
2013-01-11 22:34:00,42.6,37.8,30.10,North,0,0.0,0.0,83,0.00,CLR,,0.00,WeatherDisplay:10.37,2013-01-12 06:34:00,
2013-01-11 22:39:00,42.4,37.6,30.10,North,0,0.0,0.0,83,0.00,CLR,,0.00,WeatherDisplay:10.37,2013-01-12 06:39:00,
2013-01-11 22:44:00,42.4,37.6,30.10,North,0,0.0,0.0,83,0.00,CLR,,0.00,WeatherDisplay:10.37,2013-01-12 06:44:00,
2013-01-11 22:49:00,42.4,37.6,30.10,North,0,0.0,0.0,83,0.00,CLR,,0.00,WeatherDisplay:10.37,2013-01-12 06:49:00,
2013-01-11 22:54:00,42.4,37.9,30.11,North,0,0.0,0.0,84,0.00,CLR,,0.00,WeatherDisplay:10.37,2013-01-12 06:54:00,
2013-01-11 22:59:00,42.5,38.0,30.11,North,0,0.0,0.0,84,0.00,CLR,,0.00,WeatherDisplay:10.37,2013-01-12 06:59:00,
2013-01-11 23:04:00,42.6,38.4,30.11,North,0,0.0,0.0,85,0.00,CLR,,0.00,WeatherDisplay:10.37,2013-01-12 07:04:00,
2013-01-11 23:09:00,42.8,38.6,30.11,North,0,0.0,0.0,85,0.00,CLR,,0.00,WeatherDisplay:10.37,2013-01-12 07:09:00,
2013-01-11 23:14:00,42.8,38.6,30.10,North,0,0.0,0.0,85,0.00,CLR,,0.00,WeatherDisplay:10.37,2013-01-12 07:14:00,
2013-01-11 23:19:00,42.8,38.6,30.11,North,0,0.0,0.0,85,0.00,CLR,,0.00,WeatherDisplay:10.37,2013-01-12 07:19:00,
2013-01-11 23:24:00,43.0,38.8,30.11,North,0,0.0,0.0,85,0.00,CLR,,0.00,WeatherDisplay:10.37,2013-01-12 07:24:00,
2013-01-11 23:29:00,43.2,39.0,30.11,North,0,0.0,0.0,85,0.00,CLR,,0.00,WeatherDisplay:10.37,2013-01-12 07:29:00,
2013-01-11 23:39:00,43.2,38.7,30.11,North,0,0.0,0.0,84,0.00,CLR,,0.00,WeatherDisplay:10.37,2013-01-12 07:39:00,
2013-01-11 23:44:00,43.0,38.5,30.10,North,0,0.0,0.0,84,0.00,CLR,,0.00,WeatherDisplay:10.37,2013-01-12 07:44:00,
2013-01-11 23:49:00,42.8,38.3,30.11,North,0,0.0,0.0,84,0.00,CLR,,0.00,WeatherDisplay:10.37,2013-01-12 07:49:00,
2013-01-11 23:54:00,42.8,38.3,30.10,North,0,0.0,0.0,84,0.00,CLR,,0.00,WeatherDisplay:10.37,2013-01-12 07:54:00,
2013-01-11 23:59:00,42.6,38.2,30.10,North,0,0.0,0.0,84,0.00,CLR,,0.00,WeatherDisplay:10.37,2013-01-12 07:59:00,